TimeAKDT,TemperatureF,Dew PointF,Humidity,Sea Level PressureIn,VisibilityMPH,Wind Direction,Wind SpeedMPH,Gust SpeedMPH,PrecipitationIn,Events,Conditions,WindDirDegrees,DateUTC
12:53 AM,30.0,25.0,82,30.09,10.0,Calm,Calm,-,N/A,,Clear,0,2012-10-01 08:53:00
1:53 AM,28.9,24.1,82,30.10,10.0,Calm,Calm,-,N/A,,Clear,0,2012-10-01 09:53:00
2:53 AM,30.0,25.0,82,30.12,10.0,Calm,Calm,-,N/A,,Clear,0,2012-10-01 10:53:00
3:53 AM,27.0,21.9,81,30.13,10.0,East,3.5,-,N/A,,Clear,80,2012-10-01 11:53:00
4:53 AM,28.0,23.0,81,30.14,10.0,East,3.5,-,N/A,,Partly Cloudy,80,2012-10-01 12:53:00
5:53 AM,27.0,21.9,81,30.17,10.0,East,3.5,-,N/A,,Partly Cloudy,90,2012-10-01 13:53:00
6:53 AM,28.0,23.0,81,30.19,10.0,East,3.5,-,N/A,,Partly Cloudy,80,2012-10-01 14:53:00
7:53 AM,28.0,23.0,81,30.19,10.0,East,3.5,-,N/A,,Clear,80,2012-10-01 15:53:00
8:53 AM,30.9,23.0,72,30.22,10.0,NE,3.5,-,N/A,,Clear,40,2012-10-01 16:53:00
9:53 AM,34.0,27.0,75,30.23,10.0,East,3.5,-,N/A,,Clear,90,2012-10-01 17:53:00
10:53 AM,39.9,26.1,58,30.25,10.0,Calm,Calm,-,N/A,,Clear,0,2012-10-01 18:53:00
11:53 AM,44.1,28.0,53,30.26,10.0,Calm,Calm,-,N/A,,Clear,0,2012-10-01 19:53:00
12:53 PM,44.1,28.9,55,30.28,10.0,WNW,5.8,-,N/A,,Clear,300,2012-10-01 20:53:00
1:53 PM,45.0,28.9,53,30.29,10.0,North,3.5,-,N/A,,Clear,350,2012-10-01 21:53:00
2:53 PM,46.9,28.0,48,30.30,10.0,NNW,3.5,-,N/A,,Clear,330,2012-10-01 22:53:00
3:53 PM,46.0,28.0,50,30.31,10.0,NW,4.6,-,N/A,,Clear,320,2012-10-01 23:53:00
4:53 PM,46.9,26.1,44,30.31,10.0,NNE,5.8,-,N/A,,Clear,30,2012-10-02 00:53:00
5:53 PM,46.9,24.1,41,30.32,10.0,NNE,3.5,-,N/A,,Clear,20,2012-10-02 01:53:00
6:53 PM,45.0,25.0,46,30.33,10.0,NNE,4.6,-,N/A,,Overcast,20,2012-10-02 02:53:00
7:53 PM,45.0,21.9,40,30.34,10.0,NE,3.5,-,N/A,,Overcast,40,2012-10-02 03:53:00
8:53 PM,44.1,21.9,42,30.35,10.0,Calm,Calm,-,N/A,,Overcast,0,2012-10-02 04:53:00
9:53 PM,44.1,23.0,43,30.36,10.0,Calm,Calm,-,N/A,,Overcast,0,2012-10-02 05:53:00
10:53 PM,43.0,25.0,49,30.36,10.0,Calm,Calm,-,N/A,,Overcast,0,2012-10-02 06:53:00
11:53 PM,42.1,25.0,51,30.36,10.0,North,3.5,-,N/A,,Overcast,360,2012-10-02 07:53:00